When you browse on this site, cookies collect data to enhance your experience and personalize the content and advertising you see.
Visit our Privacy Policy to learn more. By continuing to use the site, you agree to this use of cookies and data.
  • In Switzerland
  • List of Countries
  • For 7 days
  • Water Temperature
  • Satellite Maps
  • Weather Map
  • Weather Widgets
  • user-avatar
    Login

    Hourly Weather Plenykiv

    Today, 19 April, Friday

    Time Temperature Precipitation Wind Pressure Humidity
    00:00 +8°C° 0 mm 2 mps 739 mmHg 75%
    01:00 +7°C° 0 mm 3 mps 739 mmHg 77%
    02:00 +7°C° 0 mm 1 mps 739 mmHg 82%
    03:00 +6°C° 0 mm 2 mps 739 mmHg 83%
    04:00 +5°C° 0 mm 2 mps 739 mmHg 85%
    05:00 +4°C° 0 mm 3 mps 739 mmHg 86%
    06:00 +5°C° 0 mm 4 mps 739 mmHg 80%
    07:00 +6°C° 0 mm 4 mps 739 mmHg 73%
    08:00 +8°C° 0 mm 5 mps 739 mmHg 67%
    09:00 +9°C° 0 mm 5 mps 740 mmHg 61%
    10:00 +10°C° 0 mm 6 mps 740 mmHg 55%
    11:00 +11°C° 0 mm 6 mps 740 mmHg 49%
    12:00 +13°C° 0 mm 6 mps 740 mmHg 47%
    13:00 +13°C° 0 mm 6 mps 740 mmHg 45%
    14:00 +14°C° 0 mm 6 mps 740 mmHg 43%
    15:00 +13°C° 0 mm 6 mps 740 mmHg 44%
    16:00 +13°C° 0 mm 6 mps 740 mmHg 44%
    17:00 +13°C° 0 mm 6 mps 740 mmHg 45%
    18:00 +10°C° 0 mm 5 mps 740 mmHg 50%
    19:00 +10°C° 0 mm 4 mps 740 mmHg 55%
    20:00 +8°C° 0 mm 3 mps 740 mmHg 60%
    21:00 +7°C° 0 mm 3 mps 741 mmHg 61%
    22:00 +7°C° 0 mm 2 mps 741 mmHg 62%
    23:00 +6°C° 0 mm 2 mps 741 mmHg 63%

    Tomorrow, 20 April, Saturday

    Time Temperature Precipitation Wind Pressure Humidity
    00:00 +6°C° 0 mm 2 mps 741 mmHg 65%
    01:00 +6°C° 0 mm 1 mps 741 mmHg 67%
    02:00 +6°C° 0 mm 1 mps 741 mmHg 69%
    03:00 +5°C° 0 mm 1 mps 741 mmHg 71%
    04:00 +5°C° 0 mm 1 mps 741 mmHg 73%
    05:00 +4°C° 0 mm 0 mps 741 mmHg 75%
    06:00 +5°C° 0 mm 0 mps 741 mmHg 71%
    07:00 +7°C° 0 mm 0 mps 741 mmHg 67%
    08:00 +8°C° 0 mm 0 mps 741 mmHg 63%
    09:00 +11°C° 0 mm 1 mps 741 mmHg 56%
    10:00 +12°C° 0 mm 1 mps 741 mmHg 50%
    11:00 +13°C° 0 mm 1 mps 741 mmHg 43%
    12:00 +14°C° 0 mm 1 mps 740 mmHg 43%
    13:00 +14°C° 0 mm 1 mps 740 mmHg 42%
    14:00 +14°C° 0 mm 1 mps 740 mmHg 41%
    15:00 +14°C° 0 mm 1 mps 739 mmHg 43%
    16:00 +14°C° 0 mm 1 mps 739 mmHg 44%
    17:00 +14°C° 0 mm 1 mps 739 mmHg 46%
    18:00 +13°C° 0 mm 1 mps 739 mmHg 49%
    19:00 +11°C° 0 mm 1 mps 738 mmHg 53%
    20:00 +9°C° 0 mm 2 mps 738 mmHg 56%
    21:00 +9°C° 0 mm 2 mps 738 mmHg 59%
    22:00 +8°C° 0 mm 2 mps 738 mmHg 61%
    23:00 +7°C° 0 mm 2 mps 737 mmHg 64%

    Day after tomorrow, 21 April, Sunday

    Time Temperature Precipitation Wind Pressure Humidity
    00:00 +7°C° 0 mm 2 mps 737 mmHg 65%
    01:00 +7°C° 0 mm 2 mps 737 mmHg 66%
    02:00 +6°C° 0 mm 2 mps 737 mmHg 67%
    03:00 +6°C° 0 mm 2 mps 736 mmHg 68%
    04:00 +6°C° 0 mm 2 mps 736 mmHg 69%
    05:00 +6°C° 0 mm 2 mps 736 mmHg 71%
    06:00 +7°C° 0.1 mm 2 mps 736 mmHg 73%
    07:00 +8°C° 0.1 mm 2 mps 736 mmHg 74%
    08:00 +8°C° 0.1 mm 2 mps 736 mmHg 76%
    09:00 +9°C° 0.2 mm 2 mps 736 mmHg 72%
    10:00 +10°C° 0.2 mm 2 mps 736 mmHg 69%
    11:00 +12°C° 0.2 mm 2 mps 736 mmHg 65%
    12:00 +13°C° 0.6 mm 2 mps 735 mmHg 64%
    13:00 +13°C° 0.6 mm 2 mps 735 mmHg 62%
    14:00 +14°C° 0.6 mm 2 mps 735 mmHg 61%
    15:00 +13°C° 1.1 mm 2 mps 734 mmHg 63%
    16:00 +13°C° 1.1 mm 2 mps 734 mmHg 65%
    17:00 +13°C° 1.1 mm 2 mps 734 mmHg 67%
    18:00 +12°C° 0.5 mm 2 mps 734 mmHg 73%
    19:00 +10°C° 0.5 mm 2 mps 734 mmHg 78%
    20:00 +9°C° 0.5 mm 2 mps 734 mmHg 84%
    21:00 +8°C° 0.4 mm 2 mps 734 mmHg 85%
    22:00 +8°C° 0.4 mm 2 mps 734 mmHg 87%
    23:00 +8°C° 0.4 mm 2 mps 734 mmHg 88%

    22 April, Monday

    Time Temperature Precipitation Wind Pressure Humidity
    00:00 +8°C° 0.2 mm 3 mps 734 mmHg 86%
    01:00 +7°C° 0.2 mm 3 mps 734 mmHg 84%
    02:00 +6°C° 0.2 mm 4 mps 734 mmHg 82%
    03:00 +6°C° 0.1 mm 5 mps 734 mmHg 81%
    04:00 +5°C° 0.1 mm 5 mps 735 mmHg 80%
    05:00 +5°C° 0.1 mm 5 mps 735 mmHg 79%
    06:00 +5°C° 0 mm 6 mps 735 mmHg 76%
    07:00 +5°C° 0 mm 7 mps 735 mmHg 73%
    08:00 +6°C° 0 mm 8 mps 736 mmHg 70%
    09:00 +8°C° 0 mm 9 mps 736 mmHg 64%
    10:00 +10°C° 0 mm 9 mps 736 mmHg 59%
    11:00 +11°C° 0 mm 9 mps 736 mmHg 53%
    12:00 +11°C° 0 mm 9 mps 736 mmHg 51%
    13:00 +12°C° 0 mm 9 mps 736 mmHg 50%
    14:00 +12°C° 0 mm 9 mps 736 mmHg 48%
    15:00 +12°C° 0 mm 9 mps 736 mmHg 49%
    16:00 +12°C° 0 mm 8 mps 736 mmHg 51%
    17:00 +12°C° 0 mm 8 mps 736 mmHg 52%
    18:00 +10°C° 0 mm 7 mps 736 mmHg 55%
    19:00 +9°C° 0 mm 7 mps 736 mmHg 58%
    20:00 +8°C° 0 mm 6 mps 737 mmHg 61%
    21:00 +8°C° 0 mm 7 mps 737 mmHg 60%
    22:00 +6°C° 0 mm 7 mps 737 mmHg 60%
    23:00 +6°C° 0 mm 7 mps 737 mmHg 59%

    23 April, Tuesday

    Time Temperature Precipitation Wind Pressure Humidity
    00:00 +6°C° 0 mm 8 mps 737 mmHg 59%
    01:00 +6°C° 0 mm 8 mps 737 mmHg 59%
    02:00 +5°C° 0 mm 8 mps 737 mmHg 59%
    03:00 +5°C° 0 mm 8 mps 737 mmHg 57%
    04:00 +5°C° 0 mm 8 mps 737 mmHg 56%
    05:00 +5°C° 0 mm 8 mps 737 mmHg 55%
    06:00 +5°C° 0 mm 9 mps 737 mmHg 53%
    07:00 +6°C° 0 mm 10 mps 737 mmHg 52%
    08:00 +7°C° 0 mm 10 mps 737 mmHg 51%
    09:00 +8°C° 0 mm 11 mps 737 mmHg 50%
    10:00 +9°C° 0 mm 11 mps 737 mmHg 49%
    11:00 +11°C° 0 mm 11 mps 737 mmHg 48%
    12:00 +12°C° 0 mm 11 mps 737 mmHg 47%
    13:00 +12°C° 0 mm 11 mps 737 mmHg 47%
    14:00 +13°C° 0 mm 11 mps 736 mmHg 46%
    15:00 +13°C° 0 mm 10 mps 736 mmHg 48%
    16:00 +12°C° 0 mm 10 mps 736 mmHg 50%
    17:00 +12°C° 0 mm 9 mps 736 mmHg 51%
    18:00 +11°C° 0 mm 8 mps 736 mmHg 55%
    19:00 +10°C° 0 mm 8 mps 736 mmHg 58%
    20:00 +9°C° 0 mm 7 mps 736 mmHg 61%
    21:00 +9°C° 0 mm 7 mps 736 mmHg 61%
    22:00 +9°C° 0 mm 8 mps 736 mmHg 61%
    23:00 +8°C° 0 mm 9 mps 736 mmHg 61%

    24 April, Wednesday

    Time Temperature Precipitation Wind Pressure Humidity
    00:00 +7°C° 0 mm 9 mps 736 mmHg 61%
    01:00 +7°C° 0 mm 9 mps 736 mmHg 61%
    02:00 +7°C° 0 mm 9 mps 736 mmHg 60%
    03:00 +7°C° 0 mm 9 mps 737 mmHg 62%
    04:00 +6°C° 0 mm 8 mps 737 mmHg 63%
    05:00 +6°C° 0 mm 8 mps 737 mmHg 64%
    06:00 +6°C° 0 mm 8 mps 737 mmHg 65%
    07:00 +7°C° 0 mm 9 mps 737 mmHg 66%
    08:00 +7°C° 0 mm 9 mps 737 mmHg 67%
    09:00 +8°C° 0 mm 9 mps 737 mmHg 65%
    10:00 +10°C° 0 mm 9 mps 737 mmHg 64%
    11:00 +11°C° 0 mm 9 mps 737 mmHg 62%
    12:00 +12°C° 0 mm 9 mps 737 mmHg 61%
    13:00 +13°C° 0 mm 9 mps 737 mmHg 60%
    14:00 +13°C° 0 mm 9 mps 737 mmHg 58%
    15:00 +13°C° 0 mm 9 mps 737 mmHg 59%
    16:00 +15°C° 0 mm 8 mps 737 mmHg 59%
    17:00 +15°C° 0 mm 8 mps 737 mmHg 60%
    18:00 +12°C° 0 mm 7 mps 737 mmHg 62%
    19:00 +11°C° 0 mm 7 mps 737 mmHg 64%
    20:00 +10°C° 0 mm 6 mps 737 mmHg 66%
    21:00 +10°C° 0 mm 6 mps 737 mmHg 65%
    22:00 +10°C° 0 mm 7 mps 737 mmHg 64%
    23:00 +9°C° 0 mm 7 mps 737 mmHg 63%
    Show more